Gary, IN

3:13 PM CDT on April 23, 2017 (GMT -0500)
Gary / Chicago

Weather History for KGYY - May, 2014

Change the Weather History Date:

Wednesday, May 7, 2014

  Actual Average Record
Temperature  
Mean Temperature 72 °F -  
Max Temperature 86 °F 62 °F 92 °F (1949)
Min Temperature 57 °F 44 °F 35 °F (1954)
Cooling Degree Days 6    
Growing Degree Days 22 (Base 50)    
Moisture  
Dew Point 44 °F    
Average Humidity 44    
Maximum Humidity 60    
Minimum Humidity 37    
Precipitation  
Precipitation 0.00 in - - ()
Sea Level Pressure  
Sea Level Pressure 29.84 in    
Wind  
Wind Speed 10 mph (SE)    
Max Wind Speed 15 mph    
Max Gust Speed 28 mph    
Visibility 10 miles    
Events      
Averages and records for this station are not official NWS values.
T = Trace of Precipitation, MM = Missing Value Source: NWS Daily Summary

Daily Weather History Graph

Daily Weather History Graph

Search for Another Location

Airport or City:

Trip Planner

Search our weather history database for the weather conditions in past years. The results will help you decide how hot, cold, wet, or windy it might be!

Date:

Astronomy

May. 07, 2014 Rise Set
Actual Time 5:38 AM CDT 7:54 PM CDT
Civil Twilight 5:08 AM CDT 8:25 PM CDT
Nautical Twilight 4:30 AM CDT 9:03 PM CDT
Astronomical Twilight 3:48 AM CDT 9:45 PM CDT
Moon 12:53 PM CDT (5/7) 1:43 AM CDT (5/7)
Length of Visible Light 15h 16m
Length of Day
14h 15m
First Quarter, 55% of the Moon is Illuminated
May 7
First Quarter
May 14
Full
May 21
Last Quarter
May 28
New
Jun 5
First Quarter

Hourly Weather History & Observations

Time (CDT) Temp. Heat Index Dew Point Humidity Pressure Visibility Wind Dir Wind Speed Gust Speed Precip Events Conditions
12:15 AM 59.2 °F - 32.9 °F 37% 29.89 in 10.0 mi ESE 11.5 mph 19.6 mph N/A   Overcast
12:35 AM 58.5 °F - 32.0 °F 37% 29.89 in 10.0 mi ESE 12.7 mph 20.7 mph N/A   Mostly Cloudy
1:15 AM 57.2 °F - 32.0 °F 38% 29.85 in 10.0 mi East 15.0 mph 21.9 mph N/A   Clear
1:35 AM 57.2 °F - 32.0 °F 38% 29.86 in 10.0 mi ESE 10.4 mph 20.7 mph N/A   Clear
1:55 AM 57.2 °F - 32.0 °F 38% 29.87 in 10.0 mi SE 6.9 mph 17.3 mph N/A   Clear
2:15 AM 57.2 °F - 32.0 °F 38% 29.87 in 10.0 mi ESE 9.2 mph 18.4 mph N/A   Clear
2:35 AM 57.2 °F - 32.9 °F 40% 29.86 in 10.0 mi ESE 10.4 mph 16.1 mph N/A   Clear
2:55 AM 57.6 °F - 33.3 °F 40% 29.85 in 10.0 mi ESE 10.4 mph 18.4 mph N/A   Clear
3:15 AM 58.1 °F - 33.8 °F 40% 29.85 in 10.0 mi ESE 8.1 mph 19.6 mph N/A   Clear
3:35 AM 58.5 °F - 34.7 °F 41% 29.86 in 10.0 mi ESE 5.8 mph 16.1 mph N/A   Clear
3:55 AM 58.3 °F - 34.9 °F 41% 29.85 in 10.0 mi ESE 9.2 mph 16.1 mph N/A   Clear
4:15 AM 57.6 °F - 34.9 °F 43% 29.84 in 10.0 mi ESE 9.2 mph - N/A   Clear
4:45 AM 57.2 °F - 35.6 °F 44% 29.83 in 10.0 mi SE 13.8 mph 27.6 mph N/A   Mostly Cloudy
5:45 AM 57.2 °F - 35.6 °F 44% 29.82 in 10.0 mi SE 13.8 mph 27.6 mph N/A   Mostly Cloudy
6:45 AM 57.2 °F - 37.4 °F 48% 29.85 in 10.0 mi ESE 13.8 mph - N/A   Mostly Cloudy
7:45 AM 59.0 °F - 39.2 °F 48% 29.86 in 15.0 mi ESE 13.8 mph - N/A   Mostly Cloudy
8:45 AM 62.6 °F - 41.0 °F 45% 29.89 in 10.0 mi ESE 11.5 mph - N/A   Mostly Cloudy
9:45 AM 68.0 °F - 44.6 °F 43% 29.88 in 10.0 mi SE 13.8 mph - N/A   Mostly Cloudy
10:45 AM 71.6 °F - 48.2 °F 43% 29.85 in 10.0 mi SE 13.8 mph - N/A   Mostly Cloudy
11:45 AM 73.4 °F - 48.2 °F 41% 29.85 in 10.0 mi SSE 9.2 mph 20.7 mph N/A   Mostly Cloudy
12:45 PM 77.0 °F - 50.0 °F 39% 29.83 in 10.0 mi SSE 11.5 mph 23.0 mph N/A   Mostly Cloudy
1:45 PM 80.6 °F - 51.8 °F 37% 29.84 in 10.0 mi SSE 11.5 mph 23.0 mph N/A   Mostly Cloudy
3:45 PM 86.0 °F 84.9 °F 57.2 °F 37% 29.79 in 10.0 mi SSW 11.5 mph - N/A   Mostly Cloudy
4:45 PM 71.6 °F - 53.6 °F 53% 29.81 in 10.0 mi North 9.2 mph - N/A   Mostly Cloudy
5:45 PM 66.2 °F - 50.0 °F 56% 29.80 in 10.0 mi NNW 9.2 mph - N/A   Mostly Cloudy
6:45 PM 59.0 °F - 41.0 °F 51% 29.79 in 5.0 mi NNE 4.6 mph - N/A   Haze
7:45 PM 66.2 °F - 51.8 °F 60% 29.79 in 7.0 mi South 6.9 mph - N/A   Scattered Clouds
8:45 PM 80.6 °F 80.5 °F 55.4 °F 42% 29.79 in 10.0 mi SSW 5.8 mph 19.6 mph N/A   Scattered Clouds
9:15 PM 80.6 °F 80.5 °F 55.4 °F 42% 29.80 in 10.0 mi South 6.9 mph 16.1 mph N/A   Clear
9:35 PM 79.7 °F - 55.4 °F 43% 29.80 in 10.0 mi South 8.1 mph - N/A   Clear
9:55 PM 78.8 °F - 55.8 °F 45% 29.81 in 10.0 mi South 3.5 mph - N/A   Clear
10:15 PM 77.9 °F - 56.3 °F 47% 29.81 in 10.0 mi South 4.6 mph - N/A   Clear
10:35 PM 77.2 °F - 56.5 °F 49% 29.81 in 10.0 mi South 3.5 mph - N/A   Clear
10:55 PM 76.1 °F - 56.7 °F 51% 29.82 in 10.0 mi South 3.5 mph - N/A   Clear
11:15 PM 76.1 °F - 57.2 °F 52% 29.82 in 10.0 mi South 9.2 mph - N/A   Clear
11:35 PM 75.7 °F - 57.2 °F 52% 29.82 in 10.0 mi South 5.8 mph - N/A   Clear
11:55 PM 76.1 °F - 57.0 °F 51% 29.82 in 10.0 mi South 8.1 mph - N/A   Clear